Regional Weather Roundup
Issued by NWS

Home | Current Version | Previous Version | Text Only | Print | Product List | Glossary Off
Versions: 1 2 3 4 5 6 7 8 9 10 11 12 13 14 15 16 17 18 19 20 21 22 23 24 25 26 27 28

000
ASUS45 KSLC 220910
RWRUT

UTAH REGIONAL WEATHER ROUNDUP
NATIONAL WEATHER SERVICE SALT LAKE CITY UT
300 AM MDT FRI SEP 22 2017

UTZ001>011-023>025-221000-

NORTHERN UTAH

CITY           SKY/WX    TMP DP  RH WIND       PRES   REMARKS
BRIGHAM CITY   CLOUDY    42  38  84 SE3       29.84S
HILL AFB       CLOUDY    39  37  93 CALM      29.82F
LOGAN          CLOUDY    41  37  86 N5        29.82F
OGDEN          CLOUDY    41  37  86 SE5       29.82F
SALT LAKE CITY CLOUDY    43  39  86 E3        29.83F
TOOELE VALLEY  CLOUDY    41  36  81 S10       29.84R
WENDOVER       CLOUDY    43  38  82 S5        29.85R
HEBER CITY     MIX PCPN  36  34  93 CALM      29.83R
WEST JORDAN    CLOUDY    39  39 100 SW3       29.85R

$$

UTZ011>015-024>027-221000-

CENTRAL/NORTHEAST UTAH

CITY           SKY/WX    TMP DP  RH WIND       PRES   REMARKS
PROVO AIRPORT  LGT RAIN  41  38  89 CALM      29.86R
MOAB/CANYONLAN PTCLDY    71  32  23 S22G32    29.68R
DELTA          CLOUDY    37  36  93 S3        29.85F
PRICE          MOCLDY    56  31  38 S6        29.72R
RICHFIELD      CLOUDY    41  41 100 CALM      29.87R
ROOSEVELT      MOCLDY    55  39  54 SW10      29.73S
VERNAL         CLOUDY    63  36  36 W14G29    29.67R

$$

UTZ013>016-019>022-027-221000-

SOUTHERN UTAH

CITY           SKY/WX    TMP DP  RH WIND       PRES   REMARKS
BRYCE CANYON   PTCLDY    47  37  68 S13G21    29.86S
CEDAR CITY     CLOUDY    39  39 100 W7        29.85S WCI  34
MILFORD        MOCLDY    39  37  92 NW3       29.85F
ST GEORGE      CLOUDY    60  38  43 W10       29.76R
HANKSVILLE     CLOUDY    66  37  34 SW18G37   29.71R
KANAB          PTCLDY    55  37  50 SW2       29.83R
BLANDING         N/A     61  32  33 S15       29.93S

$$

REGIONAL REPORTS     COLORADO/ARIZONA

CITY           SKY/WX    TMP DP  RH WIND       PRES   REMARKS
CRAIG, CO      CLEAR     57  19  22 S9        29.77S
GRAND JUNCTION PTCLDY    71  31  22 SE18      29.76R
RIFLE, CO      CLEAR     71  24  17 S16G29    29.79R
MONTROSE, CO   CLEAR     65  29  25 SE9       29.87R
CORTEZ, CO     MOCLDY    62  36  37 SW8       29.90F
PAGE, AZ       PTCLDY    69  29  22 SW9G17    29.74R
GRAND CANYON   CLOUDY    52  34  50 W7        29.90S
KINGMAN, AZ    CLEAR     55  38  52 CALM      29.79S
FLAGSTAFF, AZ  CLEAR     51  35  54 SW14      29.93R

$$

REGIONAL REPORTS    NEVADA/IDAHO/WYOMING

CITY           SKY/WX    TMP DP  RH WIND       PRES   REMARKS
LAS VEGAS, NV  CLEAR     64  33  31 NW8       29.76S
ELY, NY        CLOUDY    32  31  96 S7        29.87R WCI  26
ELKO, NV       CLOUDY    39  36  89 SW6       29.85S WCI  35
POCATELLO, ID  LGT RAIN  41  40  96 S8        29.83S
BURLEY, ID     CLOUDY    43  39  86 SW7       29.82F
EVANSTON, WY   LGT RAIN  33  33 100 S7        29.82F FOG     WCI  27
ROCK SPRINGS,  CLOUDY    44  36  73 W17G23    29.83R
KEMMERER, WY   LGT RAIN  37  36  93 SW10G23   29.83R WCI  30

$$




USA.gov is the U.S. government's official web portal to all federal, state and local government web resources and services.